« Back
NWS Peachtree City, Ga » Text Product » GA Regional Weather Roundup


Printer-friendly Version
Current Version              Previous Versions:   1  2  3  4  5  6  7  8  9  

Regional Weather Roundup

702
ASUS42 KFFC 020803
RWRGA
WEATHER ROUNDUP FOR GEORGIA
NATIONAL WEATHER SERVICE PEACHTREE CITY GA
400 AM EDT TUE SEP 02 2014

NOTE: "FAIR" INDICATES FEW OR NO CLOUDS BELOW 12,000 FEET WITH NO
SIGNIFICANT WEATHER AND/OR OBSTRUCTIONS TO VISIBILITY.

* = USE WITH CAUTION. THE STATIONS MARKED WITH AN ASTERISK MAY NOT
REPORT WEATHER SUCH AS PRECIPITATION, FOG, OR THUNDER AND ARE NOT
QUALITY CONTROLLED BY NWS.

THE REMARK "TC" DENOTES TEMPERATURE READING IN DEGREES CELSIUS.

GAZ001>058-020900-
NORTH GEORGIA

CITY           SKY/WX    TMP DP  RH WIND       PRES   REMARKS
ATLANTA        PTCLDY    73  69  87 W6        30.10R
ATHENS         CLEAR     71  69  93 CALM      30.09S
CHAMBLEE       CLEAR     71  68  90 CALM      30.09S
PEACHTREE CITY CLEAR     70  69  97 CALM      30.09S
ROME           CLEAR     71  69  93 CALM      30.08S
WEST ATLANTA   CLEAR     71  69  93 CALM      30.09S
GAINESVILLE    PTCLDY    73  70  90 NW5       30.13R
CARTERSVILLE   CLEAR     70  68  93 CALM      30.09S


CITY           SKY/WX    TMP DP  RH WIND       PRES   REMARKS
DALTON*        CLEAR     70  70 100 CALM      30.09S
MARIETTA       CLEAR     74  71  91 W2        30.10S
$$

GAZ059>098-102>109-020900-
CENTRAL GEORGIA

CITY           SKY/WX    TMP DP  RH WIND       PRES   REMARKS
AUGUSTA-BUSH   MOCLDY    73  72  96 CALM      30.05F FOG
AUGUSTA-DANIEL MOCLDY    76  73  91 CALM      30.07F
COLUMBUS       PTCLDY    74  71  91 CALM      30.05F
MACON          MOCLDY    72  72 100 CALM      30.05F
ROBINS AFB     CLOUDY    73  72  98 NW3       30.04F


CITY           SKY/WX    TMP DP  RH WIND       PRES   REMARKS
LAGRANGE*      PTCLDY    73  73  99 CALM      30.08S
SYLVANIA*      CLEAR     77  76  96 CALM      30.07F FOG
MILLEDGEVILLE* MOCLDY    72  72 100 CALM      30.06S FOG
$$

GAZ099>101-110>166-020900-
SOUTH GEORGIA

CITY           SKY/WX    TMP DP  RH WIND       PRES   REMARKS
SAVANNAH       CLEAR     79  75  87 CALM      30.06F
VALDOSTA       CLOUDY    74  72  93 CALM      30.03F
ALMA           MOCLDY    74  72  93 CALM      30.03F
ST SIMONS      CLEAR     80  75  84 VRB3      30.04F
FT STEWART     PTCLDY    76  73  92 NE2       30.03F
ALBANY         CLEAR     73  72  96 W3        30.04F
HUNTER AFB     CLEAR     78  76  92 CALM      30.03F
MOODY AFB      CLOUDY    74  73  96 SW2       30.03F
BRUNSWICK      PTCLDY    79  72  78 CALM      30.05F


CITY           SKY/WX    TMP DP  RH WIND       PRES   REMARKS
BAINBRIDGE*    CLEAR     79  77  94 CALM      30.03F
MOULTRIE*      CLEAR     73  72  94 CALM      30.04F
VIDALIA*         N/A     75  73  94 CALM      30.05F
WAYCROSS*      MOCLDY    79  77  95 CALM      30.04S
DOUGLAS*       CLOUDY    75  73  94 CALM      30.05F
$$



USA.gov is the U.S. government's official web portal to all federal, state and local government web resources and services.